Regional Weather Roundup
Issued by NWS

Home | Current Version | Previous Version | Text Only | Print | Product List | Glossary Off
Versions: 1 2 3 4 5 6 7 8 9 10 11 12 13 14 15 16 17 18 19 20 21 22 23 24 25 26 27 28 29 30 31 32 33 34 35 36 37 38 39 40 41 42 43 44 45 46 47 48 49 50

000
ASUS43 KOAX 280110
RWRNE

WEATHER ROUNDUP FOR NEBRASKA
NATIONAL WEATHER SERVICE OMAHA NE
800 PM CDT TUE JUN 27 2017

NOTES: SATELLITE DATA IS BEING USED TO AUGMENT CLOUD COVER ABOVE
       12000 FEET.
       "FAIR" INDICATES FEW OR NO CLOUDS BELOW 12,000 FEET WITH NO
       SIGNIFICANT WEATHER AND/OR OBSTRUCTIONS TO VISIBILITY.

  * THESE STATIONS DO NOT REPORT WEATHER SUCH AS RAIN...SNOW OR FOG.

NEZ001>004-019>022-054>056-280200-
NEBRASKA PANHANDLE

CITY           SKY/WX    TMP DP  RH WIND       PRES   REMARKS
SCOTTSBLUFF    SUNNY     82  58  43 E8        29.73R
ALLIANCE       PTSUNNY   79  56  45 S6        29.71R
CHADRON        CLOUDY    70  60  70 CALM      29.72R
SIDNEY         CLOUDY    73  55  53 E7        29.73R
$$

NEZ057>060-069>072-079>082-280200-
SOUTHWEST NEBRASKA

CITY           SKY/WX    TMP DP  RH WIND       PRES   REMARKS
NORTH PLATTE   CLOUDY    83  61  47 E8        29.63R
IMPERIAL       CLOUDY    82  46  28 NW13G23   29.70R
MCCOOK         PTSUNNY   90  56  31 S18G29    29.63R
$$

NEZ005>010-023>029-035>040-094-280200-
NORTH CENTRAL NEBRASKA

CITY           SKY/WX    TMP DP  RH WIND       PRES   REMARKS
VALENTINE      CLOUDY    81  60  48 SW17G25   29.65F
BROKEN BOW     CLOUDY    83  67  58 SE15G24   29.66F
ORD            MOSUNNY   82  65  56 SE16G25   29.66F
$$

NEZ041-046>049-061>064-073>077-083>087-280200-
SOUTH CENTRAL NEBRASKA

CITY           SKY/WX    TMP DP  RH WIND       PRES   REMARKS
GRAND ISLAND   CLOUDY    80  70  71 SE21G31   29.70F
HASTINGS       SUNNY     82  69  64 SE17G25   29.71F
KEARNEY *      CLOUDY    82  68  61 SE18G28   29.69S
$$

NEZ011>018-030>034-042>045-280200-
NORTHEAST NEBRASKA

CITY           SKY/WX    TMP DP  RH WIND       PRES   REMARKS
NORFOLK        MOSUNNY   78  64  61 S24G32    29.71F
TEKAMAH        CLEAR     78  62  57 SE20G28   29.76F
$$

NEZ050>053-065>068-078-088>093-280200-
SOUTHEAST NEBRASKA

CITY           SKY/WX    TMP DP  RH WIND       PRES   REMARKS
LINCOLN        CLOUDY    80  67  64 S18G25    29.77F
OMAHA EPPLEY   MOCLDY    79  64  60 SE24G31   29.79F
FALLS CITY     CLEAR     79  65  62 S17G25    29.83F
$$

NEZ044-045-051>053-067-280200-
OMAHA AREA

CITY           SKY/WX    TMP DP  RH WIND       PRES   REMARKS
OMAHA EPPLEY   MOCLDY    79  64  60 SE24G31   29.79F
OFFUTT AFB     MOCLDY    78  65  64 SE17G24   29.80F
$$




USA.gov is the U.S. government's official web portal to all federal, state and local government web resources and services.